Other Surface Observations
Issued by NWS Tucson, AZ

Home | Current Version | Previous Version | Text Only | Print | Product List | Glossary On
Versions: 1 2 3 4 5 6 7 8 9 10 11 12 13 14 15 16 17 18 19 20 21 22 23 24 25 26 27 28 29 30 31 32 33 34 35 36 37 38 39 40 41 42 43 44 45 46 47 48 49 50
000
SXUS55 KTWC 070115
OSOTWC

WEATHER ROUNDUP FOR SOUTHEAST ARIZONA
NATIONAL WEATHER SERVICE TUCSON AZ
615 PM MST FRI MAR 06 2015

AZZ504>506-514-070215-
LOCATION       SKY/WX    TMP DP  RH WIND       PRES   REMARKS
TUCSON         CLEAR     73  25  16 E9        30.03R
DAVIS-MONTHAN  CLEAR     71  28  19 NE15      30.01S
CHILDRENS PARK N/A       76  22  13 E9                PIMA CO DEQ
ALVERNON/22ND  N/A      N/A N/A N/A N/A               PIMA CO DEQ
CHERRY/GLENN   N/A      N/A N/A N/A N/A               PIMA CO DEQ
TANGERINE      N/A       76 N/A N/A S10               PIMA CO DEQ
CONTL RANCH    N/A       78  23  13 SE8               PIMA CO DEQ
GRANT/1ST      N/A       75  23  14 NE2               PIMA CO DEQ
CRAYCROFT/22ND N/A      N/A N/A N/A N/A               PIMA CO DEQ
GOLFLINKS/KOLB N/A       74  23  15 NE9               PIMA CO DEQ
AJO/12TH       N/A       76  22  13 E10               PIMA CO DEQ
SAGUARO EAST   N/A      N/A N/A N/A N/A               PIMA CO DEQ
FAIRGROUNDS    N/A       73 N/A N/A E19               PIMA CO DEQ
SAGUARO        N/A       75  23  14 E8G21             *SABINO CYN
SAN CARLOS     N/A       70   9   9 SE12G21           *SAN CARLOS
GREEN VALLEY   N/A       76  25  15 E9                PIMA CO DEQ
HORSE CAMP CYN N/A       63  11  13 E23G35            *ARAVAIPA CYN
RINCON MTNS    N/A       43  22  42 E10G18            *NR MANNING CAMP
$$

AZZ509>511-070215-
LOCATION       SKY/WX    TMP DP  RH WIND       PRES   REMARKS
SAFFORD        CLEAR     66  10  11 S14       30.11S
STRAY HORSE    N/A       52   4  14 SE3               *
TRAIL CABIN    N/A       56   4  12 S6G11             *N OF GRANVILLE
BLACK HILLS    N/A       66  12  12 SE12G27           *N OF FT THOMAS
DRY LAKE       N/A       50   6  16 SE7G15            *NATANES MTNS
NOON CREEK     NOT AVBL
COLUMBINE      N/A       48 -10   8 E3G11             *PINALENO MTNS
GUTHRIE        N/A       55   1  11 E6G22             *SW OF GUTHRIE
$$

AZZ502-503-513-070215-
LOCATION       SKY/WX    TMP DP  RH WIND       PRES   REMARKS
NOGALES        CLEAR     68  28  22 E17G24    30.05R
SELLS          N/A       79  30  17 E3G12             *
SASABE         N/A       76  27  16 S7G15             *ALTAR VLY
HOPKINS        N/A       54  24  31 E18G26            *SANTA RITA MTNS
CARR CYN       N/A       55  28  35 W4G14             *W OF HEREFORD
$$

AZZ507-508-512-070215-
LOCATION       SKY/WX    TMP DP  RH WIND       PRES   REMARKS
SIERRA VISTA   CLEAR     63  28  27 SE15      30.12R
DOUGLAS        CLEAR     62  27  26 E15       30.13R
EMPIRE MTNS    N/A       63  27  25 E13G22            *LAS CIENEGAS NCA
MULESHOE RANCH N/A       62  24  23 E12G24            *PRESERVE
HEADQUARTERS   N/A       56  26  31 E10G25            *CHIRICAHUA MTNS
$$

.............................NOTES.............................
THIS IS AN AUTOMATED COLLECTIVE WITH MINIMAL QUALITY CONTROL.
PIMA CO DEQ SITES HAVE NONSTANDARD WIND SENSOR HEIGHTS.
PIMA CO DEQ SITES DO NOT REPORT WIND GUSTS.
* INDICATES WIND SENSORS LOCATED AT 20 FEET INSTEAD OF 33 FEET.
..............................KEY..............................
SKY/WX - SKY CONDITION/WEATHER
TMP    - TEMPERATURE IN FAHRENHEIT
DP     - DEWPOINT IN FAHRENHEIT
RH     - RELATIVE HUMIDITY IN PERCENT
WIND   - DIRECTION AND SPEED IN MILES PER HOUR (MPH)
VRB    - VARIABLE WIND DIRECTION
PRES   - MEAN SEA LEVEL PRESSURE IN INCHES OF MERCURY
         F - FALLING PRESSURE   R - RISING PRESSURE
         S - STEADY PRESSURE
VSB    - VISIBILITY IN MILES
HX     - HEAT INDEX IN FAHRENHEIT
WCI    - WIND CHILL INDEX IN FAHRENHEIT
N/A    - NOT AVAILABLE
AFB    - AIR FORCE BASE
         DAVIS-MONTHAN IS DAVIS-MONTHAN AIR FORCE BASE
CYN    - CANYON
MTNS   - MOUNTAINS
NCA    - NATIONAL CONSERVATION AREA
NR     - NEAR
VLY    - VALLEY
CONTL  - CONTINENTAL
PIMA CO DEQ - PIMA COUNTY DEPT OF ENVIRONMENTAL QUALITY



USA.gov is the U.S. government's official web portal to all federal, state and local government web resources and services.